CDT,Max TemperatureF,Mean TemperatureF,Min TemperatureF,Max Dew PointF,MeanDew PointF,Min DewpointF,Max Humidity, Mean Humidity, Min Humidity, Max Sea Level PressureIn, Mean Sea Level PressureIn, Min Sea Level PressureIn, Max VisibilityMiles, Mean VisibilityMiles, Min VisibilityMiles, Max Wind SpeedMPH, Mean Wind SpeedMPH, Max Gust SpeedMPH,PrecipitationIn, CloudCover, Events, WindDirDegrees
2012-10-1,93,50,36,47,42,37,100,71,41,29.93,29.87,29.80,10,8,0,10,3,16,0.00,1,,64
2012-10-2,93,58,51,57,51,42,96,75,44,29.89,29.83,29.78,10,10,3,16,7,21,0.00,8,,48
2012-10-3,93,57,55,58,57,55,99,97,93,30.04,29.96,29.88,10,5,2,12,4,17,0.00,8,,177
2012-10-4,80,66,52,57,53,48,99,72,32,30.11,30.06,30.00,10,9,5,20,8,29,0.00,4,,218
2012-10-5,93,46,38,51,41,36,95,85,66,30.15,30.11,30.05,10,10,4,13,8,18,0.00,7,,253
2012-10-6,93,40,31,36,31,28,90,69,45,30.15,30.11,30.04,10,10,10,14,8,18,0.00,4,,274
2012-10-7,93,37,27,32,29,25,92,63,43,30.17,30.14,30.11,10,10,10,13,7,16,0.00,7,,273
2012-10-8,93,41,25,32,26,23,92,59,27,30.20,30.14,30.06,10,10,10,17,6,25,0.00,0,,190
2012-10-9,93,52,40,44,35,28,93,54,35,30.07,29.96,29.85,10,10,7,24,12,32,0.00,1,,201
2012-10-10,93,41,31,44,32,23,97,71,33,30.19,30.06,29.91,10,9,2,20,11,31,0.00,3,,269
2012-10-11,63,46,29,43,31,27,90,59,28,30.21,30.15,30.07,10,10,10,23,9,30,0.00,1,,218
2012-10-12,55,46,35,41,29,21,83,56,27,30.43,30.34,30.22,10,10,10,14,8,20,0.00,2,,78
2012-10-13,93,50,36,63,48,26,97,80,51,30.28,30.02,29.86,10,7,2,20,10,25,0.00,6,,180
2012-10-14,93,61,50,63,58,46,97,85,58,29.84,29.65,29.48,10,8,1,32,15,47,0.00,7,,215
2012-10-15,93,45,36,47,41,35,97,80,54,29.98,29.88,29.77,10,10,4,15,8,20,0.00,5,,298
2012-10-16,93,50,34,47,40,33,99,69,40,29.98,29.82,29.63,10,10,7,26,8,33,0.00,1,,159
2012-10-17,93,62,55,56,50,46,94,70,44,29.65,29.55,29.38,10,9,3,24,14,38,0.00,4,,178
2012-10-18,58,51,44,56,43,31,97,78,37,29.60,29.48,29.35,10,9,2,26,14,36,0.00,5,,218
2012-10-19,93,46,42,47,44,41,97,95,89,29.63,29.53,29.47,10,8,2,12,8,17,0.00,7,,210
2012-10-20,93,46,38,46,41,38,98,87,57,29.95,29.79,29.64,10,8,2,17,9,21,0.00,2,,243
2012-10-21,93,50,33,48,43,33,99,79,48,30.08,30.02,29.95,10,8,2,13,5,17,0.00,0,,149
2012-10-22,93,60,51,62,55,47,95,83,58,30.03,29.97,29.88,10,10,5,25,7,32,0.00,5,,167
2012-10-23,93,62,59,61,59,56,97,91,80,29.98,29.94,29.90,10,9,3,16,8,23,0.00,6,,191
2012-10-24,93,68,59,62,59,56,91,75,56,30.00,29.95,29.91,10,10,10,16,9,22,0.00,2,,190
2012-10-25,78,62,47,59,56,46,95,70,50,30.00,29.86,29.77,10,10,3,30,15,37,0.00,3,,196
2012-10-26,93,41,34,46,36,32,96,77,56,30.28,30.21,30.00,10,10,4,22,13,26,0.00,5,,344
2012-10-27,93,41,32,35,33,31,97,79,50,30.26,30.23,30.18,10,10,10,21,7,24,0.00,3,,8
2012-10-28,93,40,31,34,30,25,97,70,44,30.24,30.21,30.17,10,10,10,17,10,23,0.00,3,,16
2012-10-29,93,42,33,34,29,24,81,60,36,30.20,30.13,29.91,10,10,10,33,15,41,0.00,1,,359
2012-10-30,93,42,40,41,36,29,95,80,58,29.89,29.72,29.67,10,8,2,37,26,50,0.00,7,,343
2012-10-31,93,38,36,38,36,34,96,90,79,29.81,29.76,29.69,10,8,2,21,15,28,0.00,8,,301